Theta_e
322 319 318 318 318 318 318 319 320 321 326 323 325 321 318 320 308 303 302 303 302 304 306 303 306 310 311 312 313 312 311 313 313 313 310 307 304 305 305 303 303 302 302 303 303 303 303 304 307 308 308 307 308 307 307 307 307 307 307 307 308 308 308 308 307 312 314 315 314 312 312 315 316 315
320 319 318 318 317 319 317 320 319 320 319 317 321 316 317 314 312 309 304 304 306 304 305 304 303 306 307 309 310 310 308 307 311 311 309 307 305 304 304 303 303 302 302 302 301 301 302 303 305 306 306 305 306 305 305 307 306 306 305 305 306 307 308 308 308 311 311 311 312 311 310 312 313 314
321 321 321 320 317 317 318 316 316 317 320 321 313 317 316 316 316 308 306 302 307 309 305 306 305 305 306 307 308 309 308 307 310 312 309 307 306 305 304 303 303 303 303 302 302 305 304 303 303 304 304 304 304 304 304 305 304 304 304 303 304 305 306 307 306 308 309 310 311 310 309 310 311 310
321 318 317 317 319 321 318 318 319 317 317 317 317 316 317 317 315 312 309 304 304 310 306 306 306 308 307 307 306 305 308 308 308 310 309 305 307 304 303 304 303 302 302 302 303 304 303 303 304 303 303 303 302 303 301 303 303 303 302 302 302 303 305 305 305 305 307 308 309 309 309 309 309 308
318 316 316 316 318 318 318 318 316 315 313 313 315 315 314 314 316 311 308 304 304 307 315 311 309 311 310 307 308 308 308 307 307 309 309 305 304 305 302 302 302 302 301 301 301 300 300 301 302 301 298 300 300 300 301 302 301 302 301 300 301 303 303 303 303 303 305 306 307 307 308 308 308 308
319 318 314 315 317 318 318 315 312 313 314 312 310 312 313 311 316 312 309 306 304 304 308 308 309 312 313 306 310 311 311 310 310 306 310 309 307 308 304 301 301 301 302 301 301 301 301 301 300 300 299 299 300 301 301 301 301 300 299 299 300 301 301 301 301 301 302 304 306 306 306 306 306 307
317 317 317 316 318 321 317 318 317 318 315 314 313 313 316 315 315 314 313 309 307 306 308 313 307 311 312 311 307 309 311 311 309 308 308 309 311 310 306 304 303 300 301 301 302 302 302 301 301 301 301 300 300 299 299 300 300 300 299 299 300 299 299 299 299 299 300 302 303 304 305 304 305 307
317 318 317 317 318 318 317 316 315 316 318 316 315 315 316 315 316 317 315 317 313 310 308 308 306 310 312 311 310 311 310 308 309 309 309 309 309 309 310 307 302 301 301 301 303 302 302 302 302 302 301 302 301 300 300 300 300 299 299 299 299 298 298 298 297 298 299 300 300 302 302 303 304 307
320 319 319 317 318 319 316 314 318 316 314 315 315 312 313 314 316 318 316 315 315 313 311 310 312 312 311 310 311 309 307 308 309 311 309 307 309 309 309 315 305 302 301 302 302 302 302 302 302 302 301 301 300 299 300 300 299 300 300 300 300 299 298 298 298 297 298 298 298 300 301 300 303 307
321 321 320 320 319 317 319 318 317 317 316 316 314 313 313 312 314 313 314 315 313 313 313 310 312 311 312 310 310 310 310 309 309 307 309 309 310 310 310 311 309 304 302 303 304 301 301 302 302 302 302 301 300 300 300 300 300 300 299 300 300 299 298 298 298 297 297 297 297 297 298 300 301 305
323 322 322 322 322 320 319 319 318 317 316 317 315 314 313 313 313 313 313 312 314 313 311 312 312 311 313 312 309 310 309 309 308 308 307 307 309 310 309 309 310 310 310 305 305 305 305 305 303 303 302 302 301 301 300 299 300 299 299 298 298 298 298 298 298 298 297 297 297 297 296 297 299 301
323 323 322 323 323 322 321 320 320 319 317 317 315 316 315 313 313 312 312 314 311 311 312 312 309 312 311 310 310 310 309 308 308 308 308 304 305 307 309 307 307 310 309 309 310 307 305 305 304 303 302 302 301 301 300 301 301 300 298 298 298 298 298 298 298 298 298 297 297 297 296 296 295 298
319 318 319 320 319 322 317 310 312 313 315 319 316 316 315 314 313 312 310 312 311 311 311 310 312 311 310 309 309 308 310 307 305 308 308 306 306 306 305 307 308 308 306 307 306 306 307 305 304 305 304 304 303 301 301 301 301 300 298 298 299 298 298 297 298 297 297 297 297 296 296 296 296 296
319 319 322 321 317 313 311 306 302 303 306 308 312 312 312 312 314 313 312 310 310 311 309 309 309 308 308 308 311 308 310 310 308 307 306 304 304 304 304 306 307 309 306 305 303 305 307 306 304 304 303 304 307 304 301 299 300 301 299 299 298 298 297 297 297 297 297 297 297 297 296 296 296 295
319 320 322 320 316 315 313 309 301 303 304 300 296 297 300 305 308 309 311 310 310 309 309 309 308 307 306 308 309 308 307 306 306 304 304 304 303 302 300 298 303 309 305 303 301 301 304 304 302 302 303 304 304 306 306 302 300 301 300 298 298 298 297 297 297 297 297 297 296 296 296 296 296 296
320 320 320 321 320 319 319 317 310 305 300 300 296 294 293 292 292 297 305 306 306 306 306 306 307 307 306 306 306 306 305 303 304 304 303 302 301 301 299 299 299 304 305 301 300 300 303 304 303 302 303 304 305 305 303 299 300 300 299 299 298 297 297 297 297 297 296 296 296 295 295 295 295 294
318 318 317 318 320 322 320 320 318 314 309 299 298 297 295 294 294 293 292 297 307 305 305 305 305 307 306 306 305 305 304 305 302 302 301 302 301 300 299 299 299 301 304 301 299 298 301 302 301 300 303 303 304 305 302 300 299 299 298 298 298 297 297 296 296 296 296 295 296 295 295 295 294 294
318 318 316 314 317 321 318 319 320 319 314 309 307 308 309 308 296 292 292 293 294 300 306 305 305 308 308 305 305 306 305 303 301 301 300 300 299 298 298 300 301 302 305 301 299 298 299 301 301 299 300 303 303 304 302 300 299 298 298 297 297 297 297 297 296 296 296 296 296 295 295 295 294 294
320 319 319 316 318 320 317 308 308 316 315 313 313 311 311 311 308 305 304 303 306 307 308 306 307 308 306 306 305 303 304 303 302 302 300 299 299 299 300 300 301 301 304 303 301 297 295 297 297 297 298 301 299 300 300 300 300 298 298 298 298 297 296 296 296 296 296 296 295 295 294 294 294 293
319 319 318 316 318 315 310 298 293 296 310 315 314 313 312 307 301 297 294 292 294 298 299 300 300 298 296 296 297 296 298 299 299 299 298 298 297 296 295 294 297 297 299 300 298 295 294 297 297 296 298 299 297 299 298 299 300 300 300 298 297 297 296 296 296 296 296 295 295 295 295 294 294 293
310 309 311 317 315 309 302 293 292 292 301 313 312 312 311 307 304 299 297 292 291 291 291 290 290 290 290 291 290 291 292 296 296 295 294 293 295 293 291 293 293 294 296 298 299 297 294 296 296 295 297 296 295 296 297 298 300 299 299 298 297 297 296 296 296 296 295 295 295 295 294 294 294 294
307 304 304 315 312 306 301 291 291 293 305 312 312 311 310 308 305 302 301 301 296 291 291 290 291 291 291 290 291 292 291 290 293 294 292 294 294 293 293 290 292 294 296 296 301 293 293 295 295 293 294 294 296 296 296 297 298 299 297 296 296 296 296 296 296 296 296 295 295 295 295 294 294 293
307 302 298 300 302 301 295 290 291 293 303 310 311 310 309 306 305 303 303 301 299 298 299 297 297 296 292 293 293 295 292 291 294 295 295 296 294 292 292 293 293 291 293 296 297 293 292 293 293 293 291 290 293 295 295 296 296 297 297 297 296 296 296 296 296 296 295 295 295 295 295 294 294 293
306 303 299 296 290 290 291 291 291 293 298 306 306 305 304 304 303 305 304 303 303 302 302 302 301 301 300 296 297 298 296 293 295 295 296 296 297 295 295 295 292 291 291 294 295 292 292 293 291 294 292 289 287 291 294 294 295 296 296 295 294 296 296 296 294 295 295 295 295 295 295 294 294 293
306 304 300 297 291 290 291 291 291 293 294 297 301 300 298 298 299 300 303 300 296 300 300 300 301 301 300 301 300 299 299 298 295 295 295 297 297 298 295 292 292 291 293 295 295 293 291 292 291 291 291 291 291 291 292 293 294 294 295 295 294 295 295 295 295 295 295 295 294 294 293 293 294 294
307 302 299 296 292 290 290 290 291 292 293 293 297 293 290 289 291 298 299 302 299 299 300 299 299 300 298 297 298 297 297 297 298 297 298 299 299 297 295 293 291 290 292 295 295 294 291 291 290 290 290 290 290 291 290 290 292 293 294 294 294 294 294 293 294 294 294 294 294 294 294 294 294 294
304 302 297 294 291 290 290 290 291 291 292 293 291 289 289 288 288 291 299 299 301 299 299 299 297 295 295 296 295 296 295 296 296 296 296 297 296 295 295 296 295 294 294 295 296 294 292 290 291 289 289 289 289 289 289 288 289 292 292 292 293 293 293 293 292 292 293 293 293 294 294 294 293 294
302 298 296 293 289 290 290 290 290 291 292 291 289 290 288 289 293 297 298 297 299 296 295 296 295 296 296 295 294 294 295 294 295 296 295 295 295 294 294 294 295 295 294 294 294 293 292 291 291 291 290 290 288 287 287 290 291 291 290 292 292 292 292 292 292 292 292 292 292 293 292 292 294 294
302 295 291 289 289 289 289 289 289 289 289 287 288 289 289 294 295 297 297 297 297 295 293 294 295 294 294 295 295 295 294 294 294 294 296 295 294 294 293 293 293 293 295 295 293 292 292 291 291 291 291 291 289 289 289 288 289 289 290 290 289 291 291 292 292 291 292 293 293 292 292 292 293 294
290 289 289 289 289 289 291 295 295 293 293 289 288 288 290 296 295 297 295 295 294 294 293 292 292 294 294 294 294 294 294 293 292 292 292 290 290 292 291 290 290 291 293 293 293 292 292 291 291 291 291 291 291 289 289 288 288 289 290 289 290 291 291 291 292 292 292 292 292 292 293 293 294 293
291 290 291 291 291 291 291 293 292 292 290 292 293 292 294 294 297 296 294 294 293 292 292 292 293 293 293 295 292 291 291 291 292 291 290 290 290 290 290 289 288 289 291 292 293 293 292 292 293 292 290 290 291 290 290 290 288 289 289 290 290 287 289 291 292 292 292 292 292 292 293 293 292 293
294 293 291 292 295 295 295 295 294 294 293 293 292 294 295 296 295 294 293 293 293 294 295 293 293 291 294 291 291 290 290 289 290 291 290 289 288 288 289 287 286 288 289 291 292 293 293 294 293 293 293 291 290 290 291 290 289 289 289 290 290 290 291 290 291 292 292 292 291 291 291 291 291 293
295 294 294 293 295 294 290 290 292 292 293 291 295 299 297 294 296 295 293 294 295 293 292 292 290 287 291 290 290 290 289 290 290 290 289 289 289 289 289 288 288 288 288 288 290 292 293 293 294 293 293 293 292 291 290 288 289 290 289 289 290 289 290 291 291 291 292 291 290 290 290 292 293 293
292 291 291 291 291 290 291 290 290 291 290 290 290 288 289 291 292 290 292 293 292 289 290 289 288 287 288 287 288 289 287 287 288 289 288 288 289 288 287 287 287 288 288 288 289 290 291 292 292 292 293 292 294 293 292 290 288 289 290 290 290 289 290 291 291 292 291 290 290 288 289 289 291 292
291 291 291 291 291 290 292 290 291 291 290 289 288 289 288 290 289 289 291 290 288 288 288 288 288 288 288 287 286 287 287 287 287 287 288 289 289 289 288 287 287 287 288 288 288 289 290 290 290 289 289 290 289 291 294 293 290 289 290 290 290 289 290 291 291 291 290 290 290 288 287 288 289 291
292 292 292 291 291 292 292 292 290 290 290 289 288 289 288 288 288 288 288 289 290 289 288 287 286 286 287 286 286 286 287 287 287 288 287 287 287 287 287 287 287 287 288 287 288 289 289 289 288 287 285 286 285 285 286 293 293 291 289 287 289 289 290 290 290 290 289 289 289 288 286 286 288 290
292 292 292 293 294 294 291 290 290 291 292 289 289 290 288 287 287 289 289 286 290 288 287 287 286 287 286 286 286 286 286 286 286 287 286 287 287 287 286 286 286 287 287 287 288 288 289 288 288 287 285 285 284 283 285 288 290 292 291 288 287 289 289 288 288 287 288 288 288 287 287 287 287 289
293 294 293 295 296 296 292 291 289 289 290 289 289 288 290 291 290 290 291 289 287 287 287 286 287 287 286 286 286 285 286 287 287 286 286 286 286 286 286 286 286 286 286 287 288 288 288 288 287 287 286 284 283 284 284 287 287 289 292 290 287 287 287 287 286 286 286 288 287 288 288 287 287 288
297 296 295 294 294 294 291 290 289 290 292 289 288 288 288 289 287 287 286 286 288 286 287 286 287 286 286 286 286 285 285 286 286 286 286 286 286 286 285 286 286 286 286 286 287 287 288 287 287 287 287 285 284 285 285 284 285 287 289 291 290 287 287 287 286 286 286 286 287 289 288 288 290 290
295 297 296 294 295 294 293 292 289 290 289 290 289 290 288 287 286 286 286 286 286 286 286 286 286 287 285 287 286 286 287 287 287 287 286 286 286 286 286 286 286 286 285 285 285 286 287 287 288 288 288 288 287 287 287 287 287 288 287 288 290 289 288 287 286 286 286 287 287 286 285 286 285 287
294 295 295 295 295 294 293 292 292 290 290 291 290 289 287 287 287 285 285 286 286 287 287 286 285 285 285 285 285 285 285 286 286 286 286 286 286 286 286 285 286 286 285 285 286 286 286 288 289 287 288 288 287 287 286 285 284 285 286 287 290 289 289 289 288 287 285 286 285 284 284 284 284 285
295 294 295 296 294 294 294 293 292 290 289 288 288 287 286 287 286 287 285 286 285 285 286 286 285 285 285 285 285 285 285 286 286 286 286 286 286 286 286 286 286 286 285 285 285 286 288 290 289 289 289 287 286 285 284 284 284 285 285 286 287 288 288 288 288 288 287 285 284 283 283 284 285 285
294 295 295 293 295 294 294 293 291 289 288 288 288 287 287 287 286 285 286 286 285 285 285 285 285 285 285 285 285 286 286 286 286 285 285 286 286 286 286 286 286 286 286 286 287 287 287 288 289 288 287 287 286 286 284 285 285 285 285 285 286 286 286 288 288 287 287 286 285 284 284 283 281 281
295 294 294 295 293 293 292 292 290 289 288 288 288 288 287 286 285 285 285 285 287 285 285 285 285 285 285 285 284 285 285 285 285 285 285 286 286 286 286 286 286 286 286 286 286 287 287 287 287 287 286 286 286 286 285 285 285 286 286 286 287 286 286 286 286 286 286 286 286 286 286 285 285 285
293 292 292 291 291 291 291 289 289 288 287 289 288 286 286 285 285 285 286 287 286 285 285 285 285 284 284 284 284 284 285 287 287 286 286 286 286 286 286 286 286 286 286 286 286 286 287 287 287 287 286 286 286 286 286 286 286 286 286 286 285 285 285 285 284 284 284 284 285 285 285 285 285 285
Wind_Speed
3 5 5 4 3 4 5 4 4 4 1 3 1 2 4 2 5 4 4 4 4 5 6 4 4 6 5 6 6 5 4 6 5 3 5 4 3 3 5 6 8 8 8 8 6 7 7 7 7 8 9 9 9 8 9 8 8 8 9 10 10 9 9 9 9 9 9 10 9 9 8 7 8 9
4 4 4 4 4 3 3 3 3 3 4 5 3 6 4 4 2 5 6 4 3 3 3 4 4 4 5 6 5 4 5 2 4 6 5 4 3 5 4 5 6 7 8 7 6 6 5 5 5 6 6 6 6 7 7 7 7 8 9 9 9 10 10 10 11 11 10 10 10 9 9 8 8 9
4 4 3 3 4 4 4 4 4 4 3 0 4 6 6 6 6 7 7 5 3 3 3 3 3 5 5 5 4 4 3 1 2 6 5 5 8 7 3 4 4 5 6 7 6 5 4 3 3 3 4 5 5 5 5 5 6 6 6 6 7 8 8 8 8 9 9 8 9 8 8 8 8 9
4 4 4 4 3 1 3 2 1 1 4 5 3 4 4 6 8 8 6 7 5 3 3 3 2 3 5 7 5 4 3 4 4 4 5 7 10 5 3 3 4 5 6 6 6 4 3 2 3 3 4 3 3 4 4 4 4 3 3 3 4 5 6 6 6 7 7 8 8 7 7 8 9 9
4 4 4 3 4 4 4 3 1 1 3 4 5 5 5 5 7 9 7 6 5 2 1 3 2 2 2 4 6 5 4 5 4 5 7 9 6 5 5 4 5 5 6 5 5 4 0 1 3 4 4 4 4 3 3 3 3 3 3 2 2 2 4 5 5 5 7 7 8 7 8 8 8 9
3 4 5 4 3 3 2 4 1 3 1 2 2 4 4 5 4 8 7 6 5 3 1 3 2 2 1 1 5 5 2 3 4 5 6 7 6 6 6 5 5 8 7 8 7 5 4 4 5 6 7 6 6 6 4 3 3 3 3 3 2 3 4 4 4 5 6 6 7 7 7 7 8 8
4 3 3 3 1 1 2 2 3 3 5 4 6 5 5 6 6 4 5 7 5 7 4 4 4 1 1 1 4 6 5 3 3 2 3 1 5 9 9 6 5 9 10 9 8 7 7 7 7 8 8 8 8 8 6 5 5 4 4 3 2 2 3 3 3 3 4 6 7 7 8 8 8 9
3 3 3 2 1 1 2 3 2 1 0 3 2 4 4 5 3 4 5 0 6 4 4 3 4 3 2 2 1 0 4 2 2 0 3 6 3 4 6 8 6 9 12 11 9 10 9 10 10 10 10 9 9 8 7 6 6 5 5 4 2 2 3 3 4 4 4 5 7 7 8 9 10 10
1 3 1 3 2 0 3 1 1 3 5 2 3 6 3 3 3 2 3 3 2 3 4 2 4 3 2 1 1 3 5 2 1 1 2 3 4 3 3 0 6 10 13 11 11 10 10 10 11 11 11 11 11 10 9 8 7 6 5 3 3 1 3 4 4 4 5 5 5 6 7 9 10 11
1 2 0 3 3 0 0 0 4 3 2 6 6 5 6 3 4 4 3 2 2 2 1 4 3 1 1 0 0 5 3 3 2 1 2 4 5 5 3 2 3 5 5 4 7 7 7 9 12 12 12 12 13 12 10 9 9 8 7 5 4 4 3 3 4 5 5 5 6 6 6 7 8 10
1 0 0 2 1 1 0 2 2 3 4 4 4 4 4 5 4 4 3 4 2 3 3 1 1 2 1 1 1 1 3 2 1 4 5 4 4 3 2 3 3 3 3 10 12 9 8 9 7 10 13 14 15 14 11 11 11 9 8 7 6 5 3 4 5 5 6 6 7 7 6 6 7 9
4 4 6 4 2 0 0 1 3 4 2 2 1 2 2 3 2 1 2 1 3 1 2 1 0 1 1 1 1 1 3 2 6 1 2 1 1 2 2 3 4 2 3 4 3 3 4 5 7 9 9 13 15 15 12 12 11 11 10 9 8 6 5 5 5 6 6 8 8 8 8 7 6 7
6 3 6 7 8 11 6 10 7 6 5 1 1 1 1 1 1 0 2 2 1 3 1 1 1 1 1 1 3 2 1 4 1 1 1 1 1 2 3 3 3 2 3 2 3 5 4 5 6 6 6 7 9 10 11 9 13 12 11 10 9 9 7 7 6 5 7 7 9 10 9 8 8 7
2 4 2 4 7 8 10 5 8 7 7 9 5 3 3 3 1 0 1 2 3 3 3 2 2 1 1 2 2 2 1 2 3 2 1 1 2 3 3 3 1 3 3 3 3 4 3 4 6 6 6 5 1 3 5 7 8 10 13 12 12 10 9 8 7 8 7 7 7 9 10 10 9 8
1 4 3 4 7 5 5 4 6 6 2 9 10 10 8 6 3 3 3 3 4 5 3 3 3 3 3 5 4 6 5 6 4 3 3 3 3 3 3 3 3 2 7 4 5 7 5 4 6 5 5 5 7 3 4 9 13 12 12 13 13 12 10 9 9 9 7 7 8 9 9 8 9 9
1 3 4 4 5 5 7 4 3 4 4 6 10 8 7 7 7 6 4 2 3 3 3 4 5 4 3 3 4 4 5 4 3 4 3 3 3 4 3 3 4 3 7 6 7 8 5 4 5 5 5 5 3 6 4 6 9 11 11 13 13 12 10 10 10 8 6 7 8 9 9 9 9 9
4 4 5 3 3 5 8 4 5 5 4 3 6 8 8 7 7 6 5 3 2 1 1 2 3 3 2 4 3 3 2 3 4 4 5 4 4 3 4 4 4 7 6 7 6 7 5 4 5 6 5 4 4 5 5 5 8 8 11 12 13 12 11 11 8 6 7 8 8 9 10 11 11 11
5 5 5 3 3 3 4 2 3 5 5 5 2 2 2 2 4 5 7 5 2 2 0 1 1 2 3 4 2 3 2 3 3 4 3 4 4 4 4 5 7 7 6 6 5 5 6 6 6 5 5 4 3 3 5 9 4 9 11 12 12 12 10 7 8 9 9 10 10 11 11 12 12 13
4 5 4 5 5 4 3 4 4 3 5 4 4 3 2 2 4 4 4 4 3 2 1 0 0 5 5 4 5 4 4 4 3 2 2 3 4 5 5 6 7 8 8 8 4 5 4 3 4 4 5 4 4 4 5 8 10 6 11 13 13 9 8 11 12 13 12 10 11 12 12 13 14 13
4 4 4 5 7 6 4 5 8 6 1 3 5 5 4 6 5 4 1 2 5 6 5 5 5 3 4 5 4 3 3 3 3 3 3 3 4 5 5 5 4 4 5 5 5 5 5 4 6 5 4 6 6 5 4 6 12 16 12 9 9 11 14 15 15 14 11 12 14 14 13 15 15 13
5 5 5 4 8 6 5 4 8 8 6 2 2 4 5 6 5 3 2 4 8 9 10 9 8 7 7 7 5 5 4 3 1 0 2 3 2 5 5 5 4 5 3 4 4 3 5 4 5 6 5 4 5 6 7 6 5 2 3 8 11 13 15 15 14 12 12 14 16 14 13 15 15 14
6 8 12 8 7 7 5 6 9 7 3 1 3 0 3 7 5 4 3 3 3 5 6 6 6 6 5 4 3 3 4 6 4 3 3 2 1 3 3 5 3 5 5 5 0 3 4 4 3 5 5 6 4 5 4 6 6 6 5 7 9 11 12 13 13 12 13 15 16 13 14 16 13 6
5 6 8 11 9 8 7 9 9 8 5 2 4 2 0 2 4 5 5 4 3 1 1 0 0 0 2 2 3 4 9 8 6 3 3 1 2 3 4 5 4 4 3 3 9 6 6 8 5 5 6 5 4 5 6 8 8 8 7 5 4 7 10 14 15 13 13 15 14 12 13 15 8 4
5 5 5 6 8 10 11 11 11 11 11 7 6 7 7 7 8 4 4 2 2 4 3 2 4 4 4 4 4 5 5 5 5 6 5 4 4 4 4 4 4 4 3 1 5 3 2 2 5 5 4 7 6 4 6 6 5 7 7 8 7 10 12 8 6 11 13 14 14 12 13 12 7 5
7 6 5 4 4 9 11 11 12 12 12 10 7 6 6 2 1 2 3 1 4 0 1 2 3 4 3 4 5 4 5 6 4 2 3 4 3 4 3 4 5 5 6 5 8 4 3 2 5 3 4 4 6 8 5 7 7 8 8 8 8 8 7 8 8 8 9 8 7 8 9 9 11 8
7 6 6 5 4 9 11 11 12 12 12 11 7 5 5 7 10 4 2 2 2 2 4 5 5 4 3 1 1 2 1 4 4 4 4 5 4 2 3 4 5 4 5 5 9 5 5 4 3 5 4 6 7 7 9 7 7 7 6 8 8 8 8 9 8 8 7 6 7 8 10 11 9 7
8 7 7 6 8 11 11 11 11 12 12 9 6 7 6 6 2 2 2 2 1 1 2 2 3 5 5 5 3 2 6 6 4 2 1 1 2 2 3 5 4 3 4 4 4 4 3 3 3 4 5 4 7 7 7 8 6 6 7 6 6 7 8 8 8 6 7 7 6 10 9 9 11 12
9 9 8 8 12 12 11 11 11 11 9 7 6 5 6 6 3 1 2 2 3 3 2 1 2 4 1 4 6 6 5 4 4 5 5 5 4 5 5 4 5 5 5 4 4 4 4 3 3 2 3 5 7 8 9 6 7 7 8 7 6 6 6 5 6 7 7 6 6 5 5 5 5 6
9 12 15 14 13 12 13 13 12 9 8 7 5 5 6 4 2 2 3 2 4 3 2 3 2 2 3 5 5 3 3 4 4 4 3 3 4 4 4 4 4 4 4 5 5 5 5 4 4 3 3 3 6 6 6 8 8 8 7 8 8 6 7 6 6 6 5 6 6 5 5 5 5 5
19 18 16 15 14 12 10 6 4 4 4 4 5 4 3 1 3 2 3 7 5 4 4 4 3 1 3 3 4 2 2 3 4 4 5 6 6 6 6 6 6 5 5 4 5 4 5 5 5 5 5 5 5 6 6 7 8 7 7 7 8 8 5 5 6 7 7 7 6 5 5 5 5 5
10 12 11 9 8 6 4 8 8 6 5 3 1 1 2 4 1 5 5 3 3 3 4 3 3 5 5 5 4 4 5 4 4 4 4 5 5 6 6 6 6 6 6 5 5 6 5 6 6 6 7 6 5 6 7 6 8 8 7 7 7 8 7 7 7 7 6 5 5 6 6 5 5 5
8 9 9 9 6 5 5 6 4 3 2 2 2 3 5 4 4 5 5 2 2 3 2 5 4 4 4 3 3 4 4 4 5 5 5 4 5 5 5 5 5 5 6 5 5 6 6 5 5 4 4 5 6 6 5 6 7 7 8 7 7 7 7 7 7 7 6 6 6 6 6 6 5 5
7 7 6 6 5 4 4 4 4 4 4 3 5 2 3 3 2 4 3 3 2 3 5 3 3 3 2 2 3 3 3 3 5 4 5 4 5 5 4 5 6 6 6 6 6 5 5 5 4 5 5 5 6 7 7 8 7 6 7 7 6 7 6 7 7 7 6 6 6 6 6 5 4 5
7 5 6 5 5 4 4 4 4 5 4 5 4 4 3 1 3 4 2 2 5 3 3 2 2 2 1 1 2 3 2 3 3 4 4 4 4 4 4 4 5 5 6 6 6 6 6 6 6 6 6 5 5 5 6 7 8 7 6 6 6 7 6 6 6 6 5 5 6 7 6 6 5 5
5 6 5 5 5 4 4 5 5 5 5 4 5 5 3 2 5 1 1 3 2 1 1 2 1 1 1 1 1 1 1 1 2 3 4 4 3 4 4 5 5 5 6 6 6 6 6 6 6 7 7 6 7 7 6 7 7 7 6 7 6 7 7 5 5 5 5 6 5 6 6 7 6 5
7 6 6 6 5 5 5 6 5 5 5 4 4 7 5 4 4 4 2 3 0 0 1 1 3 3 1 2 2 1 1 1 2 3 3 3 3 3 4 5 5 5 5 6 7 6 6 6 6 6 7 6 6 8 5 6 7 6 6 5 5 5 5 5 4 5 5 6 5 6 7 7 6 5
8 6 6 6 6 7 6 4 5 5 6 4 3 1 2 5 5 4 4 3 3 2 1 1 4 1 3 3 5 3 3 2 3 3 3 3 3 3 4 4 4 5 6 6 5 6 5 6 6 6 6 7 7 8 9 3 6 6 2 4 4 4 4 5 5 6 6 5 6 5 6 6 5 6
7 6 5 7 7 6 5 5 5 5 4 4 4 3 2 0 3 4 2 2 3 4 3 2 3 1 2 1 0 1 2 2 2 3 3 3 4 3 3 3 4 5 6 6 6 6 6 6 6 6 5 7 7 8 9 5 4 3 4 5 7 7 4 5 7 7 7 5 5 6 4 5 6 6
7 7 6 5 6 7 6 5 5 5 4 4 4 3 1 1 4 2 3 4 5 2 2 3 4 3 1 2 2 1 1 2 3 4 3 3 2 3 3 4 5 5 5 7 6 6 6 6 6 6 5 5 6 6 6 8 9 8 8 11 8 7 7 6 7 6 5 5 3 4 4 4 7 10
3 3 4 7 7 7 6 6 4 4 4 4 4 3 5 3 3 3 4 4 3 0 1 3 1 5 4 0 1 1 2 3 3 2 2 2 3 3 4 4 4 5 6 6 6 6 6 6 5 5 5 5 5 6 6 7 7 7 8 9 12 10 7 4 5 5 5 2 4 5 7 6 7 5
1 6 5 7 6 6 6 6 5 4 4 3 4 4 2 4 1 4 2 2 2 1 1 2 2 3 4 4 3 2 2 2 2 2 2 3 3 3 4 4 5 4 5 6 6 7 7 6 7 8 7 6 5 4 4 5 6 5 5 5 5 3 3 3 2 1 1 2 3 4 6 6 7 6
5 5 7 3 5 7 5 5 6 5 3 5 5 3 2 2 3 5 4 4 2 0 1 2 4 4 4 5 6 5 4 3 4 4 4 4 4 4 6 5 5 5 5 6 7 7 8 7 7 6 6 4 4 4 5 5 6 6 6 5 5 4 7 8 9 7 5 3 4 4 4 4 2 4
0 0 1 3 7 6 6 4 5 4 4 4 5 3 1 2 4 3 0 4 3 3 3 4 4 5 5 6 5 5 5 5 5 5 4 4 4 5 5 5 5 6 6 6 6 6 7 6 6 5 5 4 4 4 5 6 6 6 6 5 5 0 3 5 7 9 8 7 4 3 4 5 4 3
6 4 4 5 5 5 6 5 5 4 4 5 5 4 1 3 4 4 4 5 6 4 4 4 5 6 5 4 3 2 2 3 3 4 4 3 4 4 5 6 6 6 5 6 6 6 6 6 5 5 5 5 3 3 5 5 6 5 5 4 3 3 2 0 0 0 2 1 9 10 10 4 6 6
1 5 5 5 5 5 5 5 5 5 3 0 1 5 6 6 4 4 6 6 4 4 4 4 5 4 4 4 3 2 2 3 3 3 3 3 4 5 6 6 5 5 6 5 6 7 6 6 6 4 4 5 4 4 5 5 6 6 5 3 1 1 1 2 2 2 3 2 6 10 8 6 5 4
Wind_Direction
51 60 57 61 64 43 33 29 40 35 86 170 172 248 120 118 128 127 108 117 120 127 132 119 121 130 141 141 155 153 134 143 171 122 113 110 107 97 97 93 91 83 74 65 59 53 44 40 33 35 37 30 27 24 24 24 20 18 19 17 15 17 19 17 13 13 18 20 26 28 14 356 342 343
73 82 84 83 78 82 61 36 17 2 22 35 32 38 56 84 65 137 117 94 88 76 57 116 132 123 120 124 119 117 129 151 165 132 130 127 133 146 118 107 102 98 92 86 73 64 52 36 31 27 28 26 22 19 13 15 19 19 19 13 12 13 15 13 9 6 7 5 7 13 7 359 354 352
63 60 74 87 91 88 89 63 33 22 356 286 58 45 56 43 44 107 119 104 12 85 79 46 95 132 141 108 90 91 100 92 103 139 141 144 147 144 117 118 115 111 110 101 88 79 69 43 27 19 10 16 9 11 4 3 17 22 23 15 11 10 11 9 7 359 359 356 358 2 351 348 355 355
100 83 67 38 36 58 92 91 119 36 6 34 74 95 62 44 72 74 80 99 92 66 113 90 98 113 134 133 129 125 134 155 210 149 156 147 148 146 136 163 162 155 138 121 109 93 51 29 352 354 350 346 342 358 343 348 4 17 35 27 18 4 4 5 6 356 354 353 353 352 342 350 351 348
103 103 95 59 23 27 40 9 68 101 97 81 87 92 85 60 82 102 102 99 93 24 118 149 87 32 4 146 141 144 149 178 220 202 157 150 162 159 156 163 194 191 175 160 147 141 174 294 304 314 308 310 305 308 315 312 334 336 8 12 8 5 9 4 8 357 356 355 353 347 350 352 348 340
52 60 68 55 32 17 52 1 9 38 333 158 81 55 82 86 91 120 123 128 128 142 290 96 122 157 277 122 120 121 156 207 208 184 176 160 167 167 150 162 190 210 199 188 169 176 209 251 265 269 275 279 282 281 276 277 295 305 316 339 343 11 15 7 4 358 360 355 348 348 353 350 342 332
84 105 119 114 71 43 13 19 23 23 1 45 66 61 57 59 41 44 109 133 140 160 178 158 151 126 122 165 135 161 188 177 231 188 123 113 175 159 165 169 177 200 208 205 190 183 202 229 245 253 256 263 264 265 264 261 266 271 286 298 329 12 8 360 351 351 348 347 346 351 348 345 336 330
158 106 96 99 97 76 30 25 34 20 343 58 114 129 93 86 66 30 18 53 135 157 145 222 134 186 204 255 175 128 151 124 264 70 198 182 170 104 129 158 179 195 203 212 206 192 208 222 234 244 247 247 250 253 253 258 258 257 263 272 298 333 349 347 351 349 341 333 345 345 344 339 333 329
103 134 144 152 125 308 84 311 332 64 7 360 52 49 5 111 91 65 55 7 40 111 121 148 125 163 153 269 185 156 101 149 244 201 132 58 59 97 163 173 159 174 200 217 223 203 211 224 234 243 247 249 251 248 244 243 247 255 255 257 242 268 317 330 336 337 331 333 332 334 336 334 328 325
4 119 283 92 98 74 135 40 34 22 43 39 41 45 33 52 69 54 7 4 82 21 105 143 121 226 143 247 230 96 132 89 276 29 353 64 51 26 14 20 126 161 182 211 227 232 229 239 242 244 247 249 250 249 239 235 238 243 250 247 248 249 278 305 313 317 323 327 320 312 314 323 322 322
140 69 221 130 96 108 339 84 86 61 43 54 55 43 58 30 35 22 30 347 358 65 13 34 107 152 160 122 7 74 126 188 82 73 46 7 30 347 360 351 342 302 183 204 206 200 201 217 225 233 241 247 247 247 240 234 232 230 230 230 231 224 240 276 291 305 314 313 308 303 300 301 311 317
17 2 1 357 360 36 133 112 120 114 90 67 61 72 61 62 49 14 339 340 8 355 270 166 168 65 59 87 185 18 332 11 66 107 108 157 259 299 2 2 326 305 336 334 330 229 229 277 280 271 251 249 249 242 235 234 230 225 220 222 224 222 234 253 275 288 301 304 301 298 296 294 293 303
59 12 29 22 329 334 69 81 80 70 65 83 57 77 63 62 80 350 304 310 225 260 296 340 74 41 346 296 148 173 94 109 151 59 77 17 357 1 341 310 287 290 339 334 3 330 332 313 302 301 304 285 256 242 227 234 233 224 217 216 214 215 223 235 246 260 272 285 296 300 297 295 296 295
46 55 74 101 64 12 349 38 83 71 55 73 83 61 43 36 7 245 317 325 321 1 4 338 34 35 339 2 122 179 185 148 110 95 61 32 337 1 312 294 272 11 6 359 316 292 315 316 304 295 290 300 265 217 199 228 222 215 212 209 209 213 218 226 234 249 263 277 285 287 293 297 296 296
183 144 149 164 148 157 192 241 121 116 113 84 80 75 65 67 58 36 32 22 6 20 349 338 13 60 18 349 24 58 54 36 43 41 40 15 349 314 337 302 312 7 38 351 337 306 298 303 290 290 297 304 294 259 232 221 225 222 205 203 206 213 220 224 236 248 260 277 282 284 283 283 289 294
167 144 158 184 166 185 211 192 147 130 131 113 113 112 104 89 71 62 74 45 37 38 23 5 1 353 75 71 44 29 35 17 24 32 19 358 359 344 334 315 292 306 16 338 307 288 288 272 276 290 284 276 308 321 326 196 206 208 196 200 206 214 220 224 232 241 253 261 267 276 277 271 272 276
167 166 184 183 189 211 192 180 171 170 153 104 104 120 125 121 122 107 80 68 96 79 51 18 346 36 12 50 58 42 37 10 34 10 9 9 356 347 325 305 323 313 313 303 285 278 277 279 269 257 259 270 284 287 305 220 207 201 200 204 211 216 219 227 246 263 264 264 264 260 259 260 260 264
173 186 182 176 209 194 159 202 226 173 152 152 144 163 184 155 121 128 137 137 156 164 89 43 351 53 51 88 90 76 55 56 33 25 352 360 341 320 286 287 284 279 276 262 273 282 279 260 251 263 266 268 278 302 325 334 239 213 214 216 221 221 221 234 245 253 256 260 261 256 252 253 255 255
181 181 186 196 193 139 94 34 357 57 128 138 154 163 163 143 88 68 49 35 9 14 14 156 11 69 55 61 54 32 38 54 44 44 345 313 284 275 278 279 262 266 258 254 244 265 283 306 328 305 313 331 336 333 335 331 331 260 225 228 228 223 225 230 236 240 246 251 253 255 253 255 257 260
190 190 203 162 115 98 90 22 47 50 87 161 165 155 150 93 87 75 80 102 73 68 63 61 74 77 82 83 80 68 49 35 28 9 341 315 288 290 299 293 313 309 313 330 333 314 316 332 323 312 324 338 317 320 312 300 281 285 279 252 229 224 228 231 233 234 236 243 249 250 252 258 261 266
62 47 12 87 111 99 80 36 53 25 34 328 256 165 141 128 126 137 132 84 74 86 93 96 95 101 94 93 105 90 78 91 87 358 327 273 6 352 316 304 307 288 330 326 340 340 321 333 331 316 316 317 317 314 295 278 284 285 268 225 225 231 237 241 242 241 238 242 248 248 251 258 262 270
65 41 40 76 103 101 86 73 64 34 15 331 308 215 151 138 131 138 140 128 92 80 85 90 107 116 130 141 140 158 163 180 181 170 211 234 263 262 267 281 300 307 317 279 332 356 279 327 333 325 312 314 289 285 303 323 316 310 289 251 247 257 266 268 268 254 247 250 253 254 254 260 267 292
86 63 44 52 82 105 114 85 69 49 39 355 333 299 194 176 145 137 144 134 125 151 153 145 127 252 224 206 203 220 212 205 207 221 231 277 200 232 249 269 289 299 282 348 30 24 339 347 331 332 324 308 320 326 337 340 334 338 340 335 295 273 276 269 267 262 261 264 269 268 267 270 293 305
112 96 79 58 65 96 91 82 73 62 62 60 55 53 67 66 73 96 83 64 147 159 194 198 193 215 190 191 215 223 210 210 208 208 215 217 233 237 241 259 267 261 265 110 49 27 269 351 318 344 319 316 313 329 329 309 324 329 335 332 326 320 326 331 285 270 265 269 276 275 275 284 286 267
140 129 103 104 67 91 90 84 77 75 71 73 70 69 75 99 217 355 115 98 78 8 284 251 245 251 244 221 215 224 227 225 211 205 239 266 281 286 322 348 333 305 307 305 345 357 305 359 304 329 312 309 304 311 327 332 340 337 330 333 332 335 342 338 347 343 339 334 306 280 272 275 273 264
127 126 137 129 126 108 100 93 88 86 87 88 86 79 87 56 42 27 348 162 177 224 227 232 237 240 238 280 293 260 184 140 182 198 229 233 250 303 315 276 279 289 299 318 3 1 346 328 339 339 334 330 316 327 318 319 316 310 331 330 331 337 344 338 337 332 332 334 340 338 334 333 327 302
126 118 122 123 133 113 105 102 103 102 97 89 104 117 92 80 55 257 254 269 266 266 313 348 350 346 322 297 302 36 40 32 45 48 47 305 269 273 304 323 307 324 344 351 1 352 3 311 2 343 318 320 310 313 304 309 313 321 307 314 328 332 330 326 321 323 328 324 320 328 335 335 336 336
129 136 139 143 134 117 111 102 94 88 90 109 108 80 60 19 11 329 321 272 231 220 230 306 292 266 301 33 36 38 23 13 347 334 321 318 9 19 352 351 346 338 342 354 356 346 332 317 315 303 306 310 304 301 301 297 294 309 312 318 316 313 309 316 320 314 305 309 323 329 332 328 326 335
137 129 130 131 123 117 112 108 101 96 97 103 100 68 38 19 328 296 271 340 31 5 333 278 288 358 39 63 80 50 9 342 328 318 334 2 5 357 358 337 332 332 345 343 346 338 331 328 319 317 310 295 292 295 299 302 309 305 314 318 310 315 315 307 294 294 311 324 317 317 307 312 312 315
121 126 126 122 120 120 124 123 117 121 121 94 55 27 13 291 260 274 37 30 17 354 336 346 330 347 47 47 49 20 347 2 345 2 355 356 347 357 342 343 332 339 331 334 339 337 329 321 313 313 302 294 288 293 296 301 298 303 305 299 298 301 289 310 315 314 308 302 303 303 301 296 296 300
108 115 118 123 120 103 95 105 104 101 104 89 68 208 195 232 242 67 58 37 334 311 296 298 10 28 24 23 26 19 24 5 358 12 354 351 338 354 344 339 326 326 330 325 325 322 309 294 285 284 284 284 282 275 282 281 287 294 293 295 305 299 308 300 294 296 304 308 313 312 307 305 301 290
115 116 110 109 110 122 118 118 117 120 128 179 175 219 211 219 113 105 104 45 310 275 321 27 26 22 19 359 27 28 19 360 356 11 5 360 339 344 340 331 313 312 310 310 297 290 287 287 286 276 265 272 281 284 276 276 278 284 288 289 290 289 291 297 304 304 303 312 308 303 303 299 298 297
124 120 121 126 133 144 144 140 150 152 178 219 206 169 36 24 133 146 142 208 216 62 32 18 14 320 316 3 23 23 17 11 11 5 4 342 332 322 321 303 303 305 305 305 305 296 294 292 286 285 285 280 270 273 281 282 272 267 274 281 286 285 292 296 296 297 303 300 296 300 301 300 300 311
134 138 135 148 145 156 164 175 182 180 187 185 130 84 57 353 40 49 7 30 65 44 47 335 299 283 47 11 36 33 13 0 359 352 346 316 307 297 289 292 293 298 302 307 318 319 318 318 317 315 308 297 283 272 270 271 277 275 270 276 277 282 284 287 287 291 302 307 315 314 310 307 305 296
144 152 155 163 164 175 182 189 197 179 150 149 139 136 183 199 102 65 329 80 71 39 326 302 286 336 51 63 71 52 45 3 333 320 299 293 299 298 305 306 310 312 313 308 306 309 310 308 314 308 303 297 296 280 256 263 284 282 287 281 280 285 291 294 304 312 328 326 329 314 307 302 303 297
167 164 160 169 179 186 188 195 176 134 137 142 131 143 164 162 142 174 133 110 78 151 251 353 334 304 310 63 58 50 357 5 300 294 307 309 311 307 309 301 305 309 314 313 309 311 313 307 310 309 305 304 300 299 290 238 249 272 282 281 285 287 293 305 316 325 321 312 307 306 297 299 301 307
163 171 168 170 187 183 179 145 121 124 117 114 110 120 120 133 170 162 143 177 177 183 137 229 261 296 58 47 33 11 4 342 312 308 306 298 296 294 297 297 301 307 305 296 303 304 307 305 304 302 303 300 298 293 291 298 290 296 291 308 309 309 322 323 316 305 291 287 289 286 292 298 304 310
169 170 175 177 176 161 132 118 116 112 121 125 131 125 130 171 115 113 126 95 81 54 22 355 320 5 107 123 150 253 262 265 268 277 274 282 283 291 295 308 301 292 291 294 295 295 295 297 297 294 295 294 297 294 301 324 324 315 357 328 302 291 294 294 292 289 293 282 276 287 305 310 302 306
170 174 178 166 136 119 115 122 122 129 125 127 131 137 136 106 98 82 95 97 82 59 352 313 277 254 194 182 176 182 229 269 279 272 272 273 291 304 305 293 291 289 294 295 296 293 293 285 284 284 281 285 283 292 310 305 299 300 287 272 266 276 274 270 275 279 278 289 306 328 300 277 289 287
41 52 126 110 109 108 114 118 121 130 125 135 175 145 143 144 119 117 86 96 101 149 237 254 307 7 337 16 172 205 224 240 250 278 317 325 305 295 288 291 292 296 293 290 293 295 293 288 285 287 282 265 271 275 276 278 281 283 282 279 250 230 246 253 263 270 286 336 348 323 311 319 308 303
302 152 122 117 113 111 115 122 129 119 139 148 95 79 83 97 96 102 112 118 143 211 26 323 346 5 350 0 4 19 356 345 355 344 337 332 324 321 319 318 305 298 299 295 296 297 293 292 288 281 275 271 275 291 288 281 281 290 299 301 345 38 319 274 266 309 354 350 334 314 304 307 300 304
353 54 77 86 109 125 118 122 131 137 141 117 133 144 124 166 157 152 183 168 170 88 292 336 17 19 13 6 357 356 350 344 3 10 15 2 336 327 314 302 295 298 295 297 297 293 290 291 287 284 278 286 290 284 280 278 289 297 292 307 299 54 59 79 76 80 80 47 359 325 311 293 295 296
100 272 106 117 95 113 123 118 106 110 108 103 91 87 187 203 137 184 95 130 154 107 53 23 21 31 19 18 16 3 2 18 17 358 333 328 318 305 299 295 291 291 291 289 286 284 290 291 290 289 286 276 258 238 267 277 278 282 291 298 308 84 62 70 95 100 93 68 33 311 268 268 302 287
205 193 126 92 95 90 95 98 99 94 102 121 150 193 175 76 69 61 56 62 61 53 37 29 35 39 28 1 331 332 33 22 324 297 296 300 296 294 299 299 296 292 291 291 293 293 292 293 288 286 293 280 265 259 266 274 277 277 280 288 336 35 52 39 155 138 153 54 17 4 349 313 247 278
173 91 84 86 83 75 72 75 79 77 70 2 112 89 65 57 48 34 56 64 57 38 38 48 49 34 359 315 318 6 20 325 288 290 303 310 311 306 300 290 291 294 294 295 297 299 301 301 298 285 268 271 256 249 256 249 260 275 276 302 1 89 55 341 356 357 350 329 16 11 4 27 44 40